Location: Unspecified
(48.7670°N, 0.0000°E)
Time: 04:17:39
(UTC+00:00)

Vanguard 2 Rocket - Pass Details

Date: 19 June 2019
Orbit: 554 x 3326 km, 32.9° (Epoch: 23 July)

Event Time Altitude Azimuth Distance (km) Brightness Sun altitude
Rises 23:24:40 0° 239° (WSW) 4,694 10.3 -17.3°
Reaches altitude 10° 23:27:32 10° 232° (SW) 4,036 9.9 -17.4°
Maximum altitude 23:38:00 40° 167° (SSE) 3,228 9.1 -17.6°
Drops below altitude 10° 23:53:59 10° 107° (ESE) 6,080 10.9 -17.8°
Sets 23:59:32 0° 102° (ESE) 7,263 11.4 -17.8°
